www.pogodaiklimat.ru

Погода и климат >> Архив погоды >> Украина >> Харьков


АРХИВ ПОГОДЫ в Харькове

Время (UTC), дата Ветер
(напр.,м/с)
 
Видим.   Явления Облачность Т
(С)
Тd
(С)
f
(%)
Тe
(С)
Тes
(С)
Комфортность P
(гПа)
Po
(гПа)
Тmin
(С)
Tmax
(С)
R
(мм)
R24
(мм)
S
(см)
21 16.02 З 4 4800 м слаб. морось 10/10 90 м
[St]
+0.1 -0.8 94 -6 -6 по сезону 1019.4 999.9
00 17.02 З 4 10 км {морось} 10/10 150 м
[St]
+0.2 -0.9 92 -5 -5 по сезону 1018.1 998.7
03 17.02 З 5 7000 м дымка 10/10 120 м
[St]
-0.3 -1.2 94 -7 -7 по сезону 1016.5 997.1
06 17.02 ЮЗ 5 5000 м дымка 10/10 90 м
[St]
-0.4 -1.6 92 -7 -7 по сезону 1014.8 995.4 -0.6 0.0 15
09 17.02 З 6 10 км 4/3 300 м
[St Ci fib]
+1.8 -1.3 80 -4 -3 по сезону 1012.7 993.5
12 17.02 З 8 10 км 4/4 300 м
[Sc]
+2.8 -1.4 74 -4 -3 по сезону 1009.8 990.7
15 17.02 З 4 10 км 9/8 500 м
[Sc Ci fib]
+2.2 -0.8 81 -3 -3 по сезону 1009.4 990.3
18 17.02 СЗ 7 10 км 9/9 540 м
[Sc]
+3.0 -0.2 79 -3 -3 тепло 1010.2 991.1 +3.2
21 17.02 СЗ 5 10 км 4/4 600 м
[Sc]
+1.7 -1.7 78 -4 -4 тепло 1010.8 991.6
00 18.02 СЗ 6 10 км 3/0
[Ac trans]
+1.2 -3.0 74 -5 -5 по сезону 1011.9 992.6
03 18.02 СЗ 5 10 км 3/0
[Ci fib]
-0.2 -5.0 70 -6 -6 по сезону 1013.9 994.5
06 18.02 СЗ 7 10 км 6/0
[Ci fib]
-0.8 -6.4 66 -8 -7 по сезону 1016.1 996.6 -1.1 15
09 18.02 СЗ 8 10 км 6/3 1000 м
[Sc Ci fib]
+0.2 -7.3 57 -7 -6 по сезону 1018.2 998.7
12 18.02 СЗ 8 10 км 5/0
[Ci fib]
+0.6 -7.6 54 -6 -6 по сезону 1018.9 999.5
15 18.02 СЗ 4 10 км 3/0
[Ci fib]
-0.1 -8.2 54 -5 -5 по сезону 1020.3 1000.8
18 18.02 СЗ 4 10 км ясно -2.0 -8.2 63 -7 -7 по сезону 1022.4 1002.7 +0.6
21 18.02 СЗ 3 10 км ясно -3.4 -8.6 67 -8 -8 по сезону 1024.0 1004.2
00 19.02 З 2 10 км ясно -4.8 -8.8 74 -9 -9 по сезону 1025.8 1005.8
03 19.02 СЗ 2 10 км ясно -7.3 -9.8 82 -12 -12 по сезону 1026.7 1006.5
06 19.02 З 2 7000 м дымка 4/0
[Ci fib]
-6.6 -9.4 80 -11 -10 по сезону 1027.7 1007.5 -8.1 14
09 19.02 ЮВ 1 10 км ясно -0.7 -8.0 58 -2 +4 тепло 1027.5 1007.8
12 19.02 З 3 10 км 3/0
[Ci fib]
+2.1 -10.6 38 -1 +1 тепло 1026.3 1006.8
15 19.02 Ю 3 10 км 3/0
[Ci fib]
-0.1 -8.2 54 -4 -4 по сезону 1025.4 1005.8
18 19.02 Ю 3 10 км ясно -3.6 -8.4 69 -9 -9 по сезону 1024.2 1004.4 +2.3
21 19.02 Ю 3 10 км ясно -4.8 -8.8 74 -10 -10 по сезону 1023.0 1003.1
00 20.02 Ю 3 10 км ясно -4.0 -8.5 71 -9 -9 по сезону 1021.3 1001.5
03 20.02 Ю 4 10 км 8/0
[Ci fib]
-3.4 -9.4 63 -9 -9 по сезону 1019.0 999.3
06 20.02 Ю 5 10 км 8/5 1020 м
[Sc Ac trans]
-4.2 -9.7 65 -11 -11 по сезону 1017.3 997.5 -5.0 14
09 20.02 Ю 6 10 км 10/10 360 м
[Sc]
-1.1 -4.7 77 -8 -8 по сезону 1015.6 996.1
12 20.02 ЮЗ 6 10 км 10/10 300 м
[Sc]
+1.4 -1.1 83 -5 -5 по сезону 1013.3 994.0
15 20.02 ЮЗ 4 1600 м слаб. морось 10/10 90 м
[St]
+1.6 +0.5 92 -4 -4 по сезону 1012.4 993.2
18 20.02 ЮЗ 5 5000 м слаб. дождь {морось} 10/10 120 м
[Sc]
+1.3 -0.1 90 -5 -5 по сезону 1011.9 992.7 +1.7 0.3
21 20.02 ЮЗ 3 2300 м дымка {дождь} 10/10 90 м
[Sc]
+1.0 +0.5 96 -4 -4 тепло 1011.2 992.0
00 21.02 ЮЗ 5 2300 м дымка {дождь} 10/10 90 м
[St]
+1.1 +0.3 94 -5 -5 по сезону 1009.9 990.7 0.0
03 21.02 ЮЗ 2 5000 м дымка 10/10 240 м
[Sc]
+1.4 0.0 90 -2 -2 тепло 1008.5 989.3
06 21.02 ЮЗ 5 10 км в посл. час крупа {ливн. осадки} 9/8 870 м
[Sc Ac trans]
+1.8 -0.4 85 -4 -4 тепло 1007.7 988.6 +1.0 0.0 13
09 21.02 З 7 1200 м ливневой снег 10/10 270 м
[Cb cap]
-1.8 -3.6 87 -9 -9 по сезону 1009.2 989.8
12 21.02 З 8 10 км в посл. час ливневой снег 8/8 930 м
[Sc]
+0.2 -8.1 54 -7 -7 по сезону 1009.1 989.8 0.7
15 21.02 З 5 10 км в посл. час ливневой снег 8/6 300 м
[Cb cap Ac trans]
-2.0 -6.6 71 -8 -8 по сезону 1011.0 991.5
18 21.02 З 5 10 км в посл. час ливневой снег 8/6 800 м
[Sc Ac trans]
-3.4 -7.7 72 -10 -10 по сезону 1012.8 993.2 +1.8 0.9
21 21.02 СЗ 5 10 км ясно -5.2 -12.1 58 -12 -12 по сезону 1013.6 993.8
00 22.02 З 4 10 км 6/6 1000 м
[Sc]
-6.2 -11.6 66 -12 -12 по сезону 1014.2 994.4
03 22.02 СЗ 4 10 км 8/0
[Ci fib]
-7.0 -11.7 69 -13 -13 по сезону 1014.5 994.6
06 22.02 З 5 10 км 8/0
[Ac trans Ci fib]
-7.3 -12.6 66 -15 -14 прохладно 1015.7 995.7 -8.1 13
09 22.02 СЗ 6 1800 м ливневой снег 10/10 360 м
[Cb cap]
-6.9 -10.7 74 -15 -15 холодно 1016.9 996.9
12 22.02 СЗ 6 10 км {ливн. осадки} 8/8 1050 м
[Sc]
-6.2 -14.8 51 -14 -13 очень
холодно
1017.9 998.0
15 22.02 СЗ 5 10 км 8/8 1140 м
[Sc]
-7.1 -14.6 55 -14 -14 холодно 1020.7 1000.7
18 22.02 СЗ 2 10 км 3/3 600 м
[Sc]
-8.6 -12.9 71 -13 -13 прохладно 1023.6 1003.4 -5.5 0.0
21 22.02 С 3 10 км 8/4 600 м
[Sc Ac trans]
-8.7 -11.5 80 -14 -14 прохладно 1025.6 1005.3
00 23.02 С 3 10 км 10/10 930 м
[Sc]
-8.1 -10.8 81 -14 -14 прохладно 1027.2 1007.0
03 23.02 С 4 10 км слаб. ливневой снег 10/10 600 м
[Cb cap]
-7.7 -11.2 76 -14 -14 прохладно 1029.5 1009.2
06 23.02 С 3 8000 м слаб. ливневой снег 10/10 500 м
[Cb cap]
-7.7 -10.8 78 -13 -13 по сезону 1031.7 1011.4 -9.4 0.0 13
09 23.02 С 5 10 км в посл. час ливневой снег 9/9 600 м
[Cb cap]
-6.6 -11.2 70 -14 -14 холодно 1033.1 1012.9
12 23.02 С 3 10 км {ливн. осадки} 6/6 840 м
[Sc]
-5.4 -11.5 62 -11 -9 прохладно 1033.3 1013.1
15 23.02 СЗ 4 10 км ясно -7.0 -13.9 58 -13 -13 холодно 1034.4 1014.1
18 23.02 С 3 10 км ясно -8.7 -14.7 62 -14 -14 холодно 1035.2 1014.7 -4.9 0.0

 

Местоположение метеостанции Харьков (Харьковская область, Украина): широта 49.97 долгота 36.13 высота над уровнем моря 155 м.

В архиве по умолчанию представлена погода в Харькове за последнюю неделю. Архивные данные за месяц целиком и за предыдущие месяцы, начиная с января 2011 года, Вы можете получить, выбрав интересующий диапазон дат из раскрывающегося списка и нажав кнопку "Ввод!".


*Определитесь, кто Вы:
робот инопланетянин человек

Внимание! Время в таблицах - всемирное. Для получения местного времени необходимо прибавить поправку, которая равна 2 ч.

Смотрите также архив погоды в соседних городах и на ближайших метеорологических станциях:

Погода в Золочеве (Львовская область, Украина) (39 км)
Погода в Боходухове (Харьковская область, Украина) (50 км)
Погода в Комсомольском (Донецкая область, Украина) (50 км)
Погода в Коломаке (Харьковская область, Украина) (66 км)
Погода в Белгороде (Белгородская область, Россия) (80 км)
Погода в Краснограде (Харьковская область, Украина) (82 км)
Погода в Великом Бурлуке (Харьковская область, Украина) (90 км)
Погода в Готне (Белгородская область, Россия) (96 км)
Погода в Купянске (Харьковская область, Украина) (119 км)
Погода в Лозовой (Харьковская область, Украина) (120 км)

Пояснения к столбцам:

Ветер - указаны скорость ветра в м/с - средняя за 10 мин, порывы в срок и между сроками (в фигурных скобках) и направление, откуда дует ветер: С - северный, СВ - северо-восточный, В - восточный, ЮВ - юго-восточный, Ю - южный, ЮЗ - юго-западный, З - западный, СЗ - северо-западный.
Видимость - горизонтальная дальность видимости в метрах или километрах. При видимости от 1 до 10 км при отсутствии осадков обычно наблюдается дымка, при ухудшении видимости до 1 км и менее - туман. В сухую погоду видимость может ухудшаться дымом, пылью или мглою.
Явления - указаны атмосферные явления, наблюдавшиеся в срок или в последний час перед сроком; фигурными скобками обозначены явления, наблюдавшиеся между сроками (за 1-3 часа до срока); квадратными скобками обозначены град или гололедные отложения с указанием их диаметра в мм.
Облачность - указаны через наклонную черту общая и нижняя облачность в баллах и высота нижней границы облаков в метрах; квадратными скобками обозначены формы облаков: Ci - перистые, Cs - перисто-слоистые, Cc - перисто-кучевые, Ac - высококучевые, As - высокослоистые, Sc - слоисто-кучевые, Ns - слоисто-дождевые, Cu - кучевые, Cb - кучево-дождевые. Подробнее классификацию облаков см. в Атласе облаков (PDF).
T - Температура воздуха - температура, измеренная на высоте 2 м над землей.
Td - Температура точки росы - температура, при понижении до которой содержащийся в воздухе водяной пар достигнет насыщения.
f - Относительная влажность воздуха - влажноcть воздуха, измеренная на высоте 2 м над землей.
Te - Эффективная температура - температура, которую ощущает одетый по сезону человек в тени. Характеристика душности погоды. При расчете учитывается влияние влажности воздуха и скорости ветра на теплоощущения человека.
Tes - Эффективная температура на солнце - температура, которую ощущает человек, с поправкой на солнечный нагрев. Характеристика знойности погоды. Зависит от высоты солнца над горизонтом, облачности и скорости ветра. Ночью, в пасмурную погоду, а также при ветре 12 м/с и более поправка равна нулю.
P - Атмосферное давление - приведенное к уровню моря атмосферное давление.
Po - Атмосферное давление - измеренное на уровне метеостанции атмосферное давление.
Tmin - Минимальная температура - минимум температуры воздуха на высоте 2 м над землей.
Tmax - Максимальная температура - максимум температуры воздуха на высоте 2 м над землей.
R - Количество осадков - Количество выпавших осадков за период времени, мм. При наведении курсора мыши на число - период времени, за который выпало указанное количество осадков.
R24 - Количество осадков - Количество выпавших осадков за 24 часа, мм.
S - Снежный покров - Высота снежного покрова, см. При наведении курсора мыши на число - состояние снежного покрова и степень покрытия местности в баллах.